Location: Altmatt
(47.1333°N, 8.7000°E)
Time: 19:10:38
(UTC+00:00)

Cosmos 2333 Rocket - Pass Details

Date: 13 July 2020
Orbit: 837 x 864 km, 70.8° (Epoch: 12 August)

Event Time Altitude Azimuth Distance (km) Brightness Sun altitude
Rises 20:45:23 0° 237° (WSW) 3,403 5.4 -11.7°
Reaches altitude 10° 20:48:05 10° 248° (WSW) 2,476 4.8 -12.0°
Maximum altitude 20:53:08 32° 310° (NW) 1,438 4.2 -12.6°
Drops below altitude 10° 20:58:15 10° 13° (NNE) 2,504 5.2 -13.1°
Sets 21:01:01 0° 23° (NNE) 3,448 5.8 -13.4°
